Tracking 33208 objects as of 14-Feb-2026
HD Live streaming from Space Station
objects crossing your sky now

ARABSAT 2B

Track ARABSAT 2B now!
ARABSAT 2B is classified as:


NORAD ID: 24652
Int'l Code: 1996-063A
Perigee: 36,023.5 km
Apogee: 36,051.2 km
Inclination: 10.3 °
Period: 1,448.6 minutes
Semi major axis: 42408 km
RCS: 3.8888 m2 (large)
Launch date: November 13, 1996
Source: Arab Satellite Communications Organization (AB)
Launch site: FRENCH GUIANA (FRGUI)

Second generation; radio and tv communications to Middle East.
Your satellite tracking list
Your tracking list is empty




NASA's NSSDC Master Catalog

Two Line Element Set (TLE):
1 24652U 96063A   26045.49015933 -.00000122  00000-0  00000+0 0  9999
2 24652  10.3222  49.9375 0003262 226.9799 142.2350  0.99409146107248
Source of the keplerian elements: AFSPC